This is the latest recevied weather packets stored in our database for station/object OH2EGI-2. If no packets are shown the sender has not sent any weather packets the latest 1 day(s).
| Time | Temp. | Humidity | Pressure | Rain* | Wind** | Luminosity | Snow |
|---|---|---|---|---|---|---|---|
| 1778047292 | 15° C | 46% | 1004 hPa | 0 mm | 0 m/s | - | - |
| 1778046992 | 14.44° C | 47% | 1003.8 hPa | 0 mm | 0 m/s | - | - |
| 1778046692 | 14.44° C | 48% | 1003.9 hPa | 0 mm | 0 m/s | - | - |
| 1778046392 | 14.44° C | 49% | 1003.8 hPa | 0 mm | 0 m/s | - | - |
| 1778046092 | 13.89° C | 53% | 1003.7 hPa | 0 mm | 0 m/s | - | - |
| 1778045792 | 13.33° C | 56% | 1003.6 hPa | 0 mm | 0 m/s | - | - |
| 1778045492 | 11.67° C | 62% | 1003.6 hPa | 0 mm | 0 m/s | - | - |
| 1778045192 | 10° C | 66% | 1003.5 hPa | 0 mm | 0 m/s | - | - |
| 1778044892 | 7.22° C | 70% | 1003.5 hPa | 0 mm | 0 m/s | - | - |
| 1778044592 | 6.11° C | 70% | 1003.5 hPa | 0 mm | 0 m/s | - | - |
| 1778044292 | 5.56° C | 71% | 1003.3 hPa | 0 mm | 0 m/s | - | - |
| 1778043992 | 5° C | 72% | 1003.1 hPa | 0 mm | 0 m/s | - | - |
| 1778043692 | 4.44° C | 72% | 1003.5 hPa | 0 mm | 0 m/s | - | - |
| 1778043392 | 3.89° C | 73% | 1003.3 hPa | 0 mm | 0 m/s | - | - |
| 1778043093 | 3.89° C | 73% | 1003.2 hPa | 0 mm | 0 m/s | - | - |
| 1778042792 | 3.89° C | 74% | 1003.2 hPa | 0 mm | 0 m/s | - | - |
| 1778042493 | 3.33° C | 74% | 1003.1 hPa | 0 mm | 0 m/s | - | - |
| 1778042193 | 3.33° C | 75% | 1003.1 hPa | 0 mm | 0 m/s | - | - |
| 1778041893 | 2.78° C | 75% | 1003.1 hPa | 0 mm | 0 m/s | - | - |
| 1778041593 | 2.78° C | 75% | 1003 hPa | 0 mm | 0 m/s | - | - |
| 1778041293 | 2.78° C | 76% | 1003 hPa | 0 mm | 0 m/s | - | - |
| 1778040993 | 2.22° C | 76% | 1002.8 hPa | 0 mm | 0 m/s | - | - |
| 1778040693 | 2.22° C | 76% | 1002.8 hPa | 0 mm | 0 m/s | - | - |
| 1778040393 | 1.67° C | 77% | 1002.9 hPa | 0 mm | 0 m/s | - | - |
| 1778040093 | 1.67° C | 77% | 1002.8 hPa | 0 mm | 0 m/s | - | - |
* Rain latest hour (hover to see other rain measurements)
** Current wind speed in m/s (hover to see current wind gust speed)